Skip Page Navigation
NASA JPL Caltech
NASA Logo - Jet Propulsion Laboratory + View the NASA Portal
+ Center for Near-Earth Object Studies
JPL Home Earth Solar System Stars & Galaxies Technology
JPL Solar System Dynamics
BODIES ORBITS EPHEMERIDES TOOLS PHYSICAL DATA DISCOVERY FAQ SITE MAP
IMPORTANT: The SSD Announcement email list is now available. Major changes are coming in the near future, including possible hostname and/or URL changes. To be notified of such changes, subscribe to this email list.

Please visit this page for more details.


JPL Small-Body Database Browser
Search: [ help ]  
108799 (2001 OX70)
Classification: Main-belt Asteroid          SPK-ID: 2108799
Ephemeris | Orbit Diagram | Orbital Elements | Mission Design | Physical Parameters | Discovery Circumstances ]

[ show orbit diagram ]
Orbital Elements at Epoch 2459000.5 (2020-May-31.0) TDB
Reference: JPL 23 (heliocentric ecliptic J2000)
 Element Value Uncertainty (1-sigma)   Units 
e .1581538753604216 4.0855e-08  
a 2.639445800117783 1.2724e-08 au
q 2.222007218025367 1.0577e-07 au
i 15.1064644275034 4.6322e-06 deg
node 142.3302641792991 1.4377e-05 deg
peri 230.6697225456169 1.9379e-05 deg
M 122.9464120825556 1.3139e-05 deg
tp 2458465.589764723528
(2018-Dec-13.08976472)
5.6e-05 TDB
period 1566.273317274401
4.29
1.1326e-05
3.101e-08
d
yr
n .2298449421499851 1.662e-09 deg/d
Q 3.0568843822102 1.4736e-08 au
  Orbit Determination Parameters
   # obs. used (total)      825  
   data-arc span      6783 days (18.57 yr)  
   first obs. used      2001-07-10  
   last obs. used      2020-02-04  
   planetary ephem.      DE431  
   SB-pert. ephem.      SB431-N16  
   condition code      0  
   norm. resid. RMS      .58113  
   source      ORB  
   producer      Otto Matic  
   solution date      2020-Feb-24 03:14:08  

Additional Information
 Earth MOID = 1.24961 au 
 Jupiter MOID = 2.45824 au 
 T_jup = 3.329 
[ show covariance matrix ]

Ephemeris | Orbit Diagram | Orbital Elements | Mission Design | Physical Parameters | Discovery Circumstances ]

Physical Parameter Table
Parameter Symbol Value Units Sigma Reference Notes
absolute magnitude H 15.3   n/a MPO453546  

108799 (2001 OX70)          Discovered 2001-Jul-19 by NEAT at Palomar
Reference: 20051019/Numbers.arcLast Updated: 2005-10-26
Ephemeris | Orbit Diagram | Orbital Elements | Mission Design | Physical Parameters | Discovery Circumstances ]
ABOUT SSD CREDITS/AWARDS PRIVACY/COPYRIGHT GLOSSARY LINKS
FirstGov 2020-Apr-10 08:50 UT
(server date/time)  
NASA Home Page
Site Manager:   Ryan S. Park
Webmaster  Alan B. Chamberlin